SL-16 DEB

Satellite information

Favourite Embed

Satellite Type and Status

DEBRISIN ORBIT

Key statistics

Satellite SL-16 DEB at a glance.

Uptime

11942

Days in orbit

Revolutions

≈ 14.1

Per day

Orbit

LEO

Low Earth Orbit

Inclination

71.3

Latest

Satellite identification and parameters

Extended collection of information and parameters for SL-16 DEB.

Object identification

Identified? True

Debris? True

Object name: SL-16 DEB

International designator: 1992-093EM

Object number (NORAD): 22444

Object ID (CCSDS): 22444

Country: COMMONWEALTH OF INDEPENDENT STATES (CIS)

Current information (Y/N): Y

RCS size: SMALL

Orbital parameters

Period: 102.274 minutes

Inclination: 71.3205 deg

SMA: 7244.428 km

Apoapsis: 923.636 km

Periapsis: 808.949 km

RAAN: 133.8156 deg

Eccentricy: 0.00791553

Argument of periapsis: 336.8388 deg

Mean anomaly: 173.7533 deg

Mean motion: 14.07980467 rev/day

Mean motion (dot): 0.00000604 rev/day2

B* drag term: 0.00037088047 1/REarth

Two-line elements (TLE)

Creation date: Sept. 4, 2025, 10:13 a.m.

Reference frame: TEME

Reference center: EARTH

Epoch: Sept. 4, 2025, 3:09 a.m. UTC

TLE line 0: 0 SL-16 DEB

TLE line 1: 1 22444U 92093EM 25247.13174587 .00000604 00000-0 37088-3 0 9994

TLE line 2: 2 22444 71.3205 133.8156 0079155 336.8388 173.7533 14.07980467672111

Live tracking on map

Real-time ground track for satellite SL-16 DEB.

In-orbit conjunctions

A list of the most updated potential collisions computed for object SL-16 DEB.

Target Orbit TCA Probability of collision Miss distance Type
FENGYUN 1C DEB * SSO 2024-11-13 18:50:42 0.0001247197 655.0 (m) DEBRIS

Associated space launch

Second generation ELING satellite

SL-16 DEB was lifted into orbit during the mission ‘Zenit-2 | Tselina-2 12’, on board a Zenit-2 space rocket.

The launch took place on Dec. 25, 1992, 5:56 a.m. from 45/1.

For more information about the launch, click the button.

Launch to space Zenit-2 | Tselina-2 12
Zenit-2 | Tselina-2 12

Agency: N/A

Status: Launch Successful

Launch date: Dec. 25, 1992, 5:56 a.m. UTC

Rocket: Zenit-2

Launch pad: 45/1

Location: Baikonur Cosmodrome, Republic of Kazakhstan

...

Latest news about this satellite

There are no fresh news available about this satellite. Check back as we update our databases every day.


Newsletter sign-up

Weekly statistics, charts and insights to help you stay on top of the space industry.